User: anonymous   Login
Location: Cogollal
(10.0582°N, 67.8466°W)
Time: 18:08:34
(UTC+00:00)
Language:

Cosmos 2278 Rocket - Orbit

View from above orbital plane
View from above orbital plane
View from above satellite
View from above satellite

Ground track
Ground track

The orbit data is extracted from the following two-line orbital elements,

1 23088U 94023B   24171.80107801 -.00000178  00000-0 -67518-4 0  9998
2 23088  71.0000 309.3709 0003768 207.7674 152.3248 14.14847773557276
Epoch (UTC): 19 June 2024 19:13:33
Eccentricity: 0.0003768
inclination: 71.0000°
perigee height: 840 km
apogee height: 845 km
right ascension of ascending node: 309.3709°
argument of perigee: 207.7674°
revolutions per day: 14.14847773
mean anomaly at epoch: 152.3248°
orbit number at epoch: 55727

The dashed part of the orbit path shows where the satellite is in the earth's shadow,  

DLR